Regional Weather Roundup
Issued by NWS

Home | Current Version | Previous Version | Graphics & Text | Print | Product List | Glossary On
Versions: 1 2 3 4 5 6 7 8 9 10 11 12 13 14 15 16 17 18 19 20 21 22 23 24 25 26 27 28 29 30 31 32 33 34 35 36 37 38 39 40 41 42 43 44 45 46 47 48 49 50
000
ASUS43 KLOT 231809
RWRIL

ILLINOIS REGIONAL WEATHER ROUNDUP
NATIONAL WEATHER SERVICE CHICAGO/ROMEOVILLE IL
100 PM CDT FRI JUN 23 2017

NOTE: "FAIR" INDICATES FEW OR NO CLOUDS BELOW 12,000 FEET WITH NO
SIGNIFICANT WEATHER AND/OR OBSTRUCTIONS TO VISIBILITY.

* THESE STATIONS ARE NOT UNDER NWS QUALITY CONTROL. THEY ALSO MAY NOT
  REPORT WEATHER SUCH AS PRECIPITATION OR FOG.

ILZ001-002-007-009-015-016-024-231900-
NORTHWEST ILLINOIS

CITY           SKY/WX    TMP DP  RH WIND       PRES   REMARKS
MOLINE         SUNNY     81  58  45 W14       29.77S HX  81
6HR MIN TEMP:  69; 6HR MAX TEMP:  82;

STERLING*      SUNNY     80  59  48 NW8       29.76R HX  81
SAVANNA*       SUNNY     79  58  49 NW10      29.75F HX  80
$$

ILZ003-004-008-010-011-017-018-231900-
NORTH CENTRAL ILLINOIS

CITY           SKY/WX    TMP DP  RH WIND       PRES   REMARKS
ROCKFORD       MOSUNNY   80  51  36 NW10G20   29.74S HX  80
6HR MIN TEMP:  67; 6HR MAX TEMP:  80;

FREEPORT*      MOSUNNY   77  57  50 NW9       29.76S
ROCHELLE*      SUNNY     77  55  46 NW10      29.75R
DE KALB*       SUNNY     78  52  40 N10G16    29.75R
PERU*          SUNNY     77  57  49 N6        29.76R
$$

ILZ005-006-012>014-019>023-231900-
NORTHEAST ILLINOIS

CITY           SKY/WX    TMP DP  RH WIND       PRES   REMARKS
CHICAGO-OHARE  MOSUNNY   79  53  40 NW13G20   29.71R
6HR MIN TEMP:  67; 6HR MAX TEMP:  79; 6HR PCP: TRACE;

CHICAGO-MIDWAY CLOUDY    79  57  46 N9        29.71R HX  80
6HR MIN TEMP:  67; 6HR MAX TEMP:  80; 6HR PCP:  0.01;

AURORA         SUNNY     78  57  48 NW13      29.74R
6HR MIN TEMP:  68; 6HR MAX TEMP:  78; 6HR PCP: TRACE;

LANSING*       CLOUDY    75  58  54 N3        29.72R
JOLIET*        MOSUNNY   79  59  51 N7        29.73S HX  80
WAUKEGAN       MOSUNNY   78  49  35 NW8G20    29.70R
6HR MIN TEMP:  65; 6HR MAX TEMP:  78;

DUPAGE AIRPORT SUNNY     78  57  48 N13       29.72R
6HR MIN TEMP:  67; 6HR MAX TEMP:  78; 6HR PCP:  0.02;

WHEELING       MOSUNNY   78  57  48 NW8       29.72R
6HR MIN TEMP:  66; 6HR MAX TEMP:  78; 6HR PCP: TRACE;

MORRIS*        MOSUNNY   78  59  52 NW7       29.73S HX  80
ROMEOVILLE*    MOSUNNY   77  57  49 NW12      29.73F
NORTHERLY ISL    N/A     71  61  70 CALM        N/A
$$

LMZ740>746-231900-
SOUTHERN LAKE MICHIGAN

STATION/POSITION SKY/WX   TEMP    WIND        PRES    VSBY  WAVE
                          AIR SEA DIR/SP/G                  HT/PER
                          (F)     (DEG/KT/KT) (MB)    (MI)  (FT/S)
SOUTHERN BUOY              63 61  310/  8/ 10 1005.1          1
WILMETTE HARBOR            68 66  320/  4/  6   N/A           1
HARRISON CRIB              69     360/  6/  7   N/A
BURNHAM HARBOR             71                   N/A
CALUMET HARBOR             74     360/  4/  6 1006.1R
BURNS HARBOR               67     320/  6/  7 1007.1R
MICHIGAN CITY              67     290/ 10/ 11   N/A
MICHIGAN CITY 6N           67 68  300/  8/ 10   N/A           1/ 3
ST. JOSEPH                 66 68  340/ 10/ 14 1005.9          2/ 3
$$

ILZ025>027-034>036-040-047-049-050-058-095>099-231900-
WEST-CENTRAL ILLINOIS

CITY           SKY/WX    TMP DP  RH WIND       PRES   REMARKS
QUINCY         SUNNY     80  55  42 N13G24    29.80R HX  80
GALESBURG*     SUNNY     79  55  43 N10       29.80R
MACOMB*        SUNNY     80  56  42 N9        29.82R HX  80
JACKSONVILLE*  SUNNY     81  58  44 N15       29.78R HX  81
PITTSFIELD*    SUNNY     80  57  44 N14G21    29.80S HX  80
$$

ILZ028>032-037-038-041>044-048-051>054-059>061-231900-
CENTRAL ILLINOIS

CITY           SKY/WX    TMP DP  RH WIND       PRES   REMARKS
PONTIAC        MOSUNNY   78  62  58 N10       29.75S HX  80
BLOOMINGTON    MOSUNNY   79  58  48 N15G25    29.76R HX  80
DECATUR        CLOUDY    77  69  76 N13G21    29.73R
PEORIA         SUNNY     81  55  40 N9        29.76S HX  81
6HR MIN TEMP:  70; 6HR MAX TEMP:  81; 6HR PCP:  0.01;

LACON*         SUNNY     78  60  52 N5        29.75S HX  80
LINCOLN*       MOSUNNY   80  60  49 N13G24    29.74F HX  81
SPRINGFIELD    MOSUNNY   82  60  47 N20G29    29.76R HX  82
6HR MIN TEMP:  77; 6HR MAX TEMP:  83;

TAYLORVILLE    CLOUDY    76  68  78 N17G25    29.73R
6HR MIN TEMP:  74; 6HR MAX TEMP:  80; 6HR PCP:  0.01;

$$

ILZ033-039-045-046-055>057-062-063-231900-
EAST-CENTRAL ILLINOIS

CITY           SKY/WX    TMP DP  RH WIND       PRES   REMARKS
CHAMPAIGN      CLOUDY    75  66  73 N13       29.74R
RANTOUL*       CLOUDY    74  69  82 N8        29.74S
MATTOON        CLOUDY    75  74  96 S5        29.70S
PARIS*         CLOUDY    76  73  88 W3        29.72F
$$

ILZ079-100>102-231900-
SOUTHWEST ILLINOIS

CITY           SKY/WX    TMP DP  RH WIND       PRES   REMARKS
ALTON          PTSUNNY   82  72  69 NW17G26   29.72R HX  87
BELLEVILLE     MOSUNNY   85  73  67 N14       29.70S HX  92
CAHOKIA*       PTSUNNY   86  70  58 NW16      29.70S HX  90
SPARTA*        CLOUDY    83  73  71 W9        29.69F HX  89
$$

ILZ064>066-069>071-074>076-080>082-084>086-088>090-092>094-231900-
SOUTH-CENTRAL ILLINOIS

CITY           SKY/WX    TMP DP  RH WIND       PRES   REMARKS
CARBONDALE     CLOUDY    77  76  96 W7        29.69R
6HR MIN TEMP:  75; 6HR MAX TEMP:  78; 6HR PCP:  0.42;

CAIRO*         CLOUDY    77  74  89 CALM      29.66S
EFFINGHAM*     LGT RAIN  78  76  92 SW9       29.70F HX  82
MARION         PTSUNNY   79  79 100 SW5       29.70R HX  83
MT. VERNON     CLOUDY    77  75  93 W3        29.70R
CENTRALIA*     CLOUDY    81  74  79 CALM      29.69F HX  87
SALEM*         CLOUDY    80  72  75 SW6       29.70S HX  84
METROPOLIS*    CLOUDY    76  74  93 CALM      29.66R
$$

ILZ067-068-072-073-078-083-087-091-231900-
SOUTHEAST ILLINOIS

CITY           SKY/WX    TMP DP  RH WIND       PRES   REMARKS
LAWRENCEVILLE  CLOUDY    76  74  93 SW8       29.68F
FLORA*         CLOUDY   N/A N/A N/A SW9       29.70F
FAIRFIELD*     CLOUDY    75  74  99 SW3       29.69S
HARRISBURG*    CLOUDY    77  74  91 CALM      29.68S
ROBINSON*      CLOUDY    74  72  93 S6        29.71S
CARMI*         LGT RAIN  76  74  95 SW5       29.68F
$$

ABBREVIATIONS USED IN REMARKS
   TC - TEMPERATURE IN CELSIUS
  WCI - WIND CHILL INDEX
   HX - HEAT INDEX
  VSB - VISIBILITY
$$





USA.gov is the U.S. government's official web portal to all federal, state and local government web resources and services.